Location: GMARS
(34.2910°N, 116.3838°W)
Time: 11:19:47
(UTC-08:00)

Daily predictions for brighter satellites

Satellite Brightness Start Highest point End
(mag) Time Altitude Azimuth Time Altitude Azimuth Time Altitude Azimuth
MONITOR-E 4.1 17:57:52 10° SSE 18:00:49 61° ENE 18:03:49 10° N
MOS 1-B Rocket 4.0 17:54:52 10° SSE 18:01:25 70° ENE 18:07:13 10° N
Cosmos 1812 3.3 18:00:15 10° NNE 18:03:47 34° E 18:07:19 10° SE
NOSS 0 Rocket 4.2 17:58:20 10° NNW 18:04:32 78° WSW 18:10:44 10° SSE
ALOS 2.3 18:02:03 10° SSE 18:06:43 89° ENE 18:11:24 10° NNW
Cosmos 1238 4.4 18:06:43 10° S 18:09:52 83° E 18:13:39 10° N
SKYMED 2 4.5 18:06:43 10° N 18:10:57 53° WNW 18:15:09 10° SSW
Cosmos 44 4.0 18:10:52 10° N 18:15:33 36° NE 18:20:24 10° ESE
CENTAUR R/B 2.4 18:10:51 10° SSW 18:16:37 75° ESE 18:23:11 10° NE
Cosmos 2082 4.4 18:13:11 10° SSW 18:18:41 59° WNW 18:24:15 10° NNE
Cosmos 2333 Rocket 3.6 18:14:13 10° NW 18:19:32 43° WSW 18:24:49 10° S
CZ-3C R/B 3.6 18:18:47 10° S 18:20:57 13° SE 18:24:30 10° ESE
Aureole 3 4.2 18:16:08 10° S 18:22:30 87° E 18:27:29 10° N
Cosmos 2056 Rocket 4.4 18:17:48 10° NNW 18:23:07 57° WSW 18:28:24 10° S
Meteor 1-25 Rocket 4.1 18:20:52 10° S 18:26:21 71° E 18:31:53 10° NNE
Lacrosse 5 2.3 18:21:39 10° NW 18:26:39 64° SW 18:31:37 10° SSE
Cosmos 1437 Rocket 3.6 18:23:36 10° SSE 18:27:08 30° E 18:30:44 10° NNE
SPOT 3 Rocket 3.5 18:22:57 10° SSE 18:28:08 88° ENE 18:33:22 10° NNW
Cosmos 1452 Rocket 3.5 18:24:10 10° N 18:29:21 59° ENE 18:34:31 10° SSE
Shenzhou-11 Module 3.7 18:26:41 10° W 18:29:22 30° SW 18:32:03 10° SSE
Cosmos 158 Rocket 3.9 18:26:09 10° SSW 18:31:03 85° WNW 18:35:56 10° NNE
Cosmos 1048 Rocket 4.0 18:26:05 10° S 18:31:19 61° ESE 18:36:33 10° NNE
EO 1 Del DPAF 3.8 18:28:23 10° N 18:32:10 60° WNW 18:35:54 10° SSW
Iridium 4 Rocket 3.3 18:29:21 10° N 18:33:58 48° E 18:38:12 10° SSE
Gbstr 26 Del rocket 3.0 18:36:11 10° SSW 18:39:43 43° SE 18:41:22 26° ENE
COSMOS 2455 3.8 18:36:33 10° SSE 18:41:11 24° ESE 18:42:51 21° E
Cosmos 1378 Rocket 3.5 18:40:24 10° N 18:44:48 69° E 18:49:12 10° SSE
Tsikada Rocket 4.2 18:41:35 10° SSE 18:47:43 50° E 18:53:51 10° NNE
Cosmos 1782 Rocket 3.6 18:43:58 10° S 18:48:19 58° E 18:52:40 10° NNE
Cosmos 1420 Rocket 3.9 18:44:36 10° NNW 18:49:54 75° ENE 18:55:11 10° SSE
Sich 1 Rocket 3.5 18:45:29 10° S 18:49:59 85° E 18:54:30 10° N
FengYun 1-2 T 4.3 18:51:42 10° S 18:57:12 78° WSW 19:02:43 10° NNW
BREEZE-M DEB (TANK) 2.8 18:57:27 10° SW 19:00:07 72° SE 19:03:04 24° NE
OAO 2 Rocket 3.2 18:56:38 10° W 19:01:35 89° S 19:03:24 39° E
Okean 2 Rocket 3.0 19:01:49 10° S 19:06:04 54° E 19:10:21 10° NNE
Cosmos 1464 Rocket 4.2 19:01:24 10° N 19:07:30 72° W 19:13:36 10° S
SJ-6B 2.6 19:04:42 10° SSE 19:08:26 87° ENE 19:12:16 10° N
FREGAT/IRIS 4.1 19:05:50 10° SSW 19:08:36 37° W 19:11:23 10° NNW
Tiangong 2 1.2 19:07:25 10° WNW 19:10:20 71° W 19:10:20 71° W
SeaSat 1 2.4 19:12:42 44° ESE 19:13:55 57° ENE 19:18:45 10° NNW
ARGOS Delta rocket 3.7 19:10:01 10° N 19:14:50 85° WNW 19:19:22 10° SSW
HJ-1C 4.2 19:13:07 10° S 19:16:27 53° W 19:19:48 10° NNW
Envisat 2.8 19:12:28 10° SSE 19:17:31 76° ENE 19:22:35 10° N
Thor Agena Rocket 3.9 19:18:28 10° N 19:23:29 63° WNW 19:28:26 10° SSW
Cosmos 44 Rocket 3.7 19:21:23 10° NW 19:26:25 66° WSW 19:29:03 28° S
Okean 1 4.2 19:23:05 10° NNW 19:26:56 48° W 19:30:44 10° SSW
SL-16 R/B 3.0 19:23:37 10° NNW 19:29:03 50° WSW 19:34:28 10° S
ERS-2 4.4 19:26:13 10° SSW 19:29:18 25° W 19:32:25 10° NW
USA 215 3.9 19:24:42 14° NNE 19:30:11 52° NW 19:36:27 10° WSW
Sakura Rocket 4.4 19:27:19 10° WSW 19:33:10 55° S 19:34:53 45° SE
CZ-2D R/B 4.1 19:33:15 30° SSW 19:34:50 49° W 19:38:37 10° NNW
Cosmos 494 Rocket 3.8 19:29:42 10° SSW 19:34:55 88° ESE 19:36:01 57° NNE
Meteor 1-13 Rocket 4.0 19:29:31 10° N 19:35:03 74° E 19:35:21 71° ESE
BREEZE-M R/B 4.4 19:32:52 10° NW 19:36:13 60° NE 19:36:44 57° ENE
Cosmos 921 Rocket 3.6 19:31:49 10° NNW 19:36:15 58° WSW 19:37:34 40° SSW
Cosmos 1603 4.0 19:42:03 10° NNW 19:46:33 55° N 19:46:33 55° N
Resurs 01 Rocket 3.5 19:57:45 23° NNW 19:57:45 23° NNW 19:59:31 10° NNW
Cosmos 1634 Rocket 4.2 19:50:11 10° N 19:54:52 54° N 19:54:52 54° N
USA 267 4.2 20:01:53 33° NNE 20:01:53 33° NNE 20:06:31 10° NNW
Cosmos 2263 Rocket 3.7 19:58:40 10° SSW 20:00:56 26° SSW 20:00:56 26° SSW
CZ-4C R/B 3.9 20:03:39 10° NNW 20:08:04 32° NNE 20:08:04 32° NNE
COSMOS 2455 3.8 20:21:02 10° SW 20:26:08 44° WNW 20:26:08 44° WNW
